Stations météo

réclame
Mon MeteoGroup
K14A, Pays-Bas (6204): Température de l'air & dewpoint: 11.02.2019 13:00:00 - 17.02.2019 13:00:00 (CET)K14A, Pays-Bas (6204): Vitesse du vent & gusts: 11.02.2019 13:00:00 - 17.02.2019 13:00:00 (CET)K14A, Pays-Bas (6204): Direction du vent: 11.02.2019 13:00:00 - 17.02.2019 13:00:00 (CET)K14A, Pays-Bas (6204): reduced air pressure: 11.02.2019 13:00:00 - 17.02.2019 13:00:00 (CET)K14A, Pays-Bas (6204): visibility: 11.02.2019 13:00:00 - 17.02.2019 13:00:00 (CET)
Date & Time tt [°C] td [°C] ff [km/h] ff [knt] fx [km/h] fx [knt] dd ppp [hPa] vv [km]
17.02.2019 13:00:00 8,4 5,1 39 21 36 19 S 1017,3 10
17.02.2019 12:00:00 8,4 5,1 39 21 36 19 S 1018,0 10
17.02.2019 11:00:00 8,2 5,3 37 20 36 19 S 1018,1 9
17.02.2019 10:00:00 8,0 5,4 34 18 32 18 S 1018,8 9
17.02.2019 09:00:00 7,9 5,6 34 18 32 18 S 1019,2 7
17.02.2019 08:00:00 7,8 5,7 34 18 32 18 S 1018,6 6
17.02.2019 07:00:00 8,0 5,9 35 19 32 18 S 1018,9 6
17.02.2019 06:00:00 8,0 6,4 35 19 32 18 S 1019,5 4,6
17.02.2019 05:00:00 8,3 6,5 34 18 32 18 S 1019,9 5
17.02.2019 04:00:00 8,4 7,3 34 18 32 18 S 1020,8 5
17.02.2019 03:00:00 8,7 7,8 31 17 29 16 SSW 1021,8 9
17.02.2019 02:00:00 8,6 7,6 34 18 36 19 SSW 1022,3 10
17.02.2019 01:00:00 9,2 7,8 39 21 40 21 SSW 1022,3 10
17.02.2019 00:00:00 9,0 7,7 41 22 40 21 SW 1022,8 10
16.02.2019 23:00:00 8,7 7,7 42 23 40 21 SSW 1022,9 10
16.02.2019 22:00:00 8,6 7,6 44 24 40 21 SSW 1023,0 10
16.02.2019 21:00:00 8,6 7,6 42 23 40 21 SSW 1023,1 9
16.02.2019 20:00:00 8,6 7,6 41 22 40 21 SSW 1023,1 9
16.02.2019 19:00:00 8,2 7,5 41 22 40 21 SSW 1022,9 8
16.02.2019 18:00:00 8,4 7,5 44 24 43 23 SSW 1022,8 9
16.02.2019 17:00:00 8,8 7,5 42 23 40 21 SSW 1023,0 10
16.02.2019 16:00:00 8,3 7,2 42 23 40 21 SW 1023,3 8
16.02.2019 15:00:00 8,2 6,9 41 22 40 21 SW 1023,5 8
16.02.2019 14:00:00 8,2 6,5 46 25 43 23 SW 1023,7 8
16.02.2019 13:00:00 8,1 6,3 42 23 40 21 SW 1023,7 7
16.02.2019 12:00:00 8,2 6,4 42 23 43 23 SW 1023,8 8
16.02.2019 11:00:00 8,2 6,3 44 24 40 21 SSW 1023,2 8
16.02.2019 10:00:00 8,1 6,3 41 22 40 21 SSW 1022,8 9
16.02.2019 09:00:00 8,1 6,3 41 22 40 21 SSW 1022,9 9
16.02.2019 08:00:00 8,2 6,2 41 22 43 23 SSW 1022,6 10
16.02.2019 07:00:00 8,2 6,0 46 25 43 23 SSW 1022,1 10
16.02.2019 06:00:00 8,3 6,0 42 23 43 23 SSW 1022,1 10
16.02.2019 05:00:00 8,3 5,9 42 23 40 21 SSW 1022,0 10
16.02.2019 04:00:00 8,2 6,0 41 22 40 21 SSW 1022,3 9
16.02.2019 03:00:00 8,3 5,5 41 22 40 21 SSW 1022,9 10
16.02.2019 02:00:00 8,4 5,5 42 23 43 23 SSW 1023,4 10
16.02.2019 01:00:00 8,6 5,6 46 25 43 23 SSW 1023,3 10
16.02.2019 00:00:00 8,7 5,3 41 22 40 21 SSW 1024,1 10
15.02.2019 23:00:00 8,5 5,2 42 23 40 21 S 1024,5 10
15.02.2019 22:00:00 8,5 4,9 39 21 40 21 S 1024,9 10
15.02.2019 21:00:00 8,5 4,6 41 22 36 19 S 1025,3 10
15.02.2019 20:00:00 8,2 4,6 35 19 36 19 S 1026,0 10
15.02.2019 19:00:00 7,9 4,9 31 17 32 18 S 1026,2 10
15.02.2019 18:00:00 8,0 5,2 31 17 29 16 S 1026,5 10
15.02.2019 17:00:00 8,3 5,2 28 15 29 16 S 1026,6 10
15.02.2019 16:00:00 8,4 4,8 31 17 29 16 S 1027,3 10
15.02.2019 15:00:00 8,2 4,9 31 17 29 16 S 1028,0 10
15.02.2019 14:00:00 8,5 4,9 31 17 32 18 S 1028,5 10
15.02.2019 13:00:00 8,5 4,8 34 18 32 18 S 1028,8 10
15.02.2019 12:00:00 8,6 4,4 35 19 32 18 S 1029,3 10
15.02.2019 11:00:00 8,5 4,3 34 18 32 18 S 1029,9 10
15.02.2019 10:00:00 8,5 4,7 31 17 29 16 S 1030,1 10
15.02.2019 09:00:00 8,3 5,0 31 17 29 16 S 1030,3 10
15.02.2019 08:00:00 7,9 5,1 29 16 25 14 S 1030,3 10
15.02.2019 07:00:00 8,0 4,9 26 14 25 14 S 1030,3 10
15.02.2019 06:00:00 8,2 4,7 29 16 29 16 S 1030,6 10
15.02.2019 05:00:00 8,7 4,0 31 17 32 18 S 1030,7 10
15.02.2019 04:00:00 8,6 4,1 34 18 29 16 S 1031,2 10
15.02.2019 03:00:00 8,5 4,7 34 18 32 18 S 1031,6 10
15.02.2019 02:00:00 8,5 4,8 34 18 32 18 S 1032,1 10
15.02.2019 01:00:00 8,3 5,0 29 16 29 16 S 1032,4 10
15.02.2019 00:00:00 8,1 5,0 34 18 32 18 S 1032,6 10
14.02.2019 23:00:00 7,8 5,6 26 14 29 16 S 1032,7 10
14.02.2019 22:00:00 8,0 4,9 26 14 29 16 S 1032,9 10
14.02.2019 21:00:00 7,7 4,9 24 13 25 14 S 1032,8 10
14.02.2019 20:00:00 7,6 5,1 28 15 25 14 S 1033,0 10
14.02.2019 19:00:00 7,6 4,9 22 12 22 12 S 1033,2 10
14.02.2019 18:00:00 7,7 5,8 22 12 22 12 S 1033,1 10
14.02.2019 17:00:00 8,2 6,1 21 11 22 12 S 1033,3 10
14.02.2019 16:00:00 8,5 6,5 22 12 25 14 S 1033,5 10
14.02.2019 15:00:00 8,1 6,4 26 14 25 14 SSW 1034,3 10
14.02.2019 14:00:00 7,8 6,7 29 16 32 18 SSW 1034,2 9
14.02.2019 13:00:00 7,8 6,5 35 19 32 18 SSW 1034,8 10
14.02.2019 12:00:00 7,9 5,9 29 16 29 16 SSW 1034,8 10
14.02.2019 11:00:00 7,5 5,5 28 15 29 16 SSW 1035,1 10
14.02.2019 10:00:00 7,2 5,1 31 17 29 16 SSW 1034,1 10
14.02.2019 09:00:00 7,0 4,8 28 15 29 16 SW 1034,0 10
14.02.2019 08:00:00 7,0 4,6 28 15 32 18 SW 1033,5 10
14.02.2019 07:00:00 7,1 4,6 37 20 40 21 SW 1032,8 10
14.02.2019 06:00:00 7,2 4,6 39 21 43 23 SW 1032,4 10
14.02.2019 05:00:00 7,4 4,8 44 24 43 23 SW 1032,5 10
14.02.2019 04:00:00 7,5 4,8 46 25 47 25 SW 1032,2 10
14.02.2019 03:00:00 7,6 5,0 44 24 47 25 SW 1032,1 10
14.02.2019 02:00:00 7,6 5,5 48 26 47 25 SSW 1032,1 10
14.02.2019 01:00:00 7,6 6,0 54 29 50 27 SSW 1032,4 10
14.02.2019 00:00:00 7,6 6,2 44 24 43 23 SSW 1032,5 10
13.02.2019 23:00:00 7,5 6,4 46 25 43 23 SSW 1032,5 10
13.02.2019 22:00:00 7,5 6,4 46 25 43 23 SSW 1032,5 10
13.02.2019 21:00:00 7,5 6,5 42 23 43 23 SSW 1032,3 10
13.02.2019 20:00:00 7,4 6,4 41 22 40 21 SSW 1032,5 10
13.02.2019 19:00:00 7,5 6,3 41 22 43 23 SSW 1032,9 10
13.02.2019 18:00:00 7,5 6,0 39 21 43 23 SSW 1032,4 10
13.02.2019 17:00:00 7,5 6,0 41 22 40 21 SSW 1032,6 10
13.02.2019 16:00:00 7,4 6,0 39 21 40 21 SW 1032,8 10
13.02.2019 15:00:00 7,3 6,0 42 23 43 23 SW 1032,8 10
13.02.2019 14:00:00 7,3 6,0 42 23 43 23 SW 1033,0 10
13.02.2019 13:00:00 7,5 6,2 41 22 43 23 SSW 1032,9 10
13.02.2019 12:00:00 7,4 6,1 46 25 43 23 SW 1033,5 10
13.02.2019 11:00:00 7,4 6,0 46 25 47 25 SW 1033,4 10
13.02.2019 10:00:00 7,3 6,1 39 21 40 21 SW 1032,7 10
13.02.2019 09:00:00 7,3 6,0 41 22 40 21 WSW 1032,5 10
13.02.2019 08:00:00 7,2 6,0 39 21 40 21 WSW 1032,0 10
13.02.2019 07:00:00 7,1 5,9 34 18 36 19 SW 1031,7 10
13.02.2019 06:00:00 7,2 5,9 37 20 36 19 WSW 1031,9 10
13.02.2019 05:00:00 7,3 5,8 41 22 43 23 WSW 1032,1 10
13.02.2019 04:00:00 7,4 5,7 46 25 43 23 WSW 1031,8 10
13.02.2019 03:00:00 7,5 5,7 46 25 43 23 WSW 1031,5 10
13.02.2019 02:00:00 7,7 5,7 44 24 43 23 WSW 1031,9 10
13.02.2019 01:00:00 7,6 5,7 42 23 43 23 WSW 1031,9 10
13.02.2019 00:00:00 7,7 5,8 44 24 47 25 WSW 1032,0 10
12.02.2019 23:00:00 7,7 5,8 46 25 47 25 WSW 1031,8 10
12.02.2019 22:00:00 7,6 5,7 44 24 43 23 WSW 1031,6 10
12.02.2019 21:00:00 7,5 5,6 46 25 47 25 WSW 1031,3 10
12.02.2019 20:00:00 7,5 5,5 48 26 47 25 SW 1030,6 10
12.02.2019 19:00:00 7,2 5,3 44 24 43 23 SW 1030,6 10
12.02.2019 18:00:00 7,0 5,2 41 22 40 21 SW 1031,3 10
12.02.2019 17:00:00 6,8 4,7 39 21 40 21 SW 1030,9 10
12.02.2019 16:00:00 6,5 4,4 37 20 36 19 WSW 1031,8 10
12.02.2019 15:00:00 6,4 4,1 37 20 36 19 WSW 1031,8 10
12.02.2019 14:00:00 6,4 4,4 29 16 32 18 SW 1031,9 10
12.02.2019 13:00:00 6,4 4,0 34 18 32 18 WSW 1032,0 10
12.02.2019 12:00:00 6,4 4,1 34 18 36 19 WSW 1032,1 10
12.02.2019 11:00:00 6,4 4,1 37 20 36 19 WSW 1031,9 10
12.02.2019 10:00:00 6,3 3,9 35 19 36 19 WSW 1031,9 10
12.02.2019 09:00:00 6,3 4,2 31 17 32 18 WSW 1031,8 10
12.02.2019 08:00:00 6,2 4,0 31 17 32 18 SW 1031,3 10
12.02.2019 07:00:00 6,1 4,0 34 18 36 19 WSW 1031,3 10
12.02.2019 06:00:00 6,2 4,0 34 18 36 19 WSW 1031,7 10
12.02.2019 05:00:00 6,2 3,3 28 15 32 18 WSW 1031,5 10
12.02.2019 04:00:00 6,2 3,1 29 16 29 16 WSW 1031,8 10
12.02.2019 03:00:00 6,1 3,7 28 15 29 16 W 1032,1 10
12.02.2019 02:00:00 6,1 4,1 28 15 29 16 W 1032,1 10
12.02.2019 01:00:00 6,1 3,3 16 9 25 14 - 1032,1 10
12.02.2019 00:00:00 6,2 2,8 22 12 29 16 - 1031,8 10
11.02.2019 23:00:00 6,2 2,5 18 10 29 16 - 1031,5 10
11.02.2019 22:00:00 6,3 2,2 24 13 29 16 W 1031,0 10
11.02.2019 21:00:00 6,3 1,3 24 13 29 16 W 1030,7 10
11.02.2019 20:00:00 6,3 2,3 26 14 29 16 WNW 1029,7 10
11.02.2019 19:00:00 6,3 2,2 28 15 29 16 NW 1029,0 10
11.02.2019 18:00:00 6,3 2,4 22 12 25 14 NW 1028,0 10
11.02.2019 17:00:00 6,4 2,6 29 16 32 18 NW 1026,6 10
11.02.2019 16:00:00 6,6 1,4 29 16 32 18 NW 1026,5 10
11.02.2019 15:00:00 6,5 2,0 31 17 32 18 NW 1025,3 10
11.02.2019 14:00:00 6,5 1,5 29 16 36 19 NNW 1024,0 10
11.02.2019 13:00:00 6,6 1,3 35 19 36 19 NNW 1022,8 10

tt = Température de l'air
td = dewpoint
ff = Vitesse du vent
fx = gusts
dd = Direction du vent
ppp = reduced air pressure
vv = visibility

stations d'obs. à proximité